"Pseudo-MPEC" for C0GVQ25

Created 2023 Mar 20 10:22:08 UT using Find_Orb

Click here for an explanation of pseudo-MPECs

 
 Astrometry: 
     C0GVQ25* C2023 03 18d'[DO@Y2;waiKdt!3h]khSqk%Q/h^MI@qR:QdUNLy6spk,^)Q\B'V00
     C0GVQ25  C2023 03 18(NjJ2t,5L@7Vo=UI-NsS41\?7B4y$biAstrometryNN-5w)5=tEfV00
     C0GVQ25  C2023 03 187iD(bwpM36e+2y*6;NC5AX2$n*x9J5nnredacted;3P0eG^x7I*IV00
     C0GVQ25  C2023 03 1849qW:RRMVuT4MC\AWg+B4it%8$Nnmge/xZ;+-Za(\ppc9-^JtjFbV00
     C0GVQ25 mC2023 03 18YAgLE;tl\:4t=?[Q[c4Q3QD@6o:ZoV96C?\8:NNT*cN\/S=LAH_MV00
     C0GVQ25 mC2023 03 18GZcpNCe+6NV^gJf;$KX,M;oZXAV[Z)(nFxCCcNYeVi#w9DmqoK#vV00
     C0GVQ25 mC2023 03 18frVymfZ(ovo:s8#!LiXoF/cjZ_(^[H0lGXX[`(w6w70joep8Ce^SV00
     C0GVQ25 1C2023 03 19.08357 13 12 44.24 -04 09 52.8    ~3J8q 20.6 VXNEOCP033
     C0GVQ25 1C2023 03 19.08409 13 12 45.77 -04 10 02.4    ~3J8q 20.2 VXNEOCP033
     C0GVQ25 1C2023 03 19.08460 13 12 47.31 -04 10 12.9    ~3J8q 20.6 VXNEOCP033
     C0GVQ25 1C2023 03 19.08511 13 12 48.83 -04 10 23.0    ~3J8q 20.5 VXNEOCP033
     C0GVQ25 1C2023 03 19.08563 13 12 50.42 -04 10 33.2    ~3J8q 20.1 VXNEOCP033
     C0GVQ25 KC2023 03 20N)//h7G$`WJa5\COtffP`5;VM9AeFpnUY7mo-7snMUkVt@Bj,LPAH21
     C0GVQ25 KC2023 03 20h`H[[3'+\6dM)DBj\;9cJ*?DJh0hrQ0XSk:gLE#clickcdPF.L7jH21
     C0GVQ25 KC2023 03 20APSk4Mj9i2IW+UB=.31u:here1R#u(I].:NOD[uY.?rwQA/6PQ._H21
     C0GVQ25 KC2023 03 20?4XPg5%I9cXSkaforxL615/]faXuQ/_nyY(W/IG5s`R+mCFEo]V^H21
     C0GVQ25 KC2023 03 20l9K-rF9['RO117A[^0.explanationxb9l+_7Tvn9Ca*3CnEvwKaH21

Station data:
(033) Karl Schwarzschild Observatory, Tautenburg  (N50.980137 E11.711240)
   Germany.  Observers S. Melnikov, C. Hoegner, B. Stecklum. Measurer B.
   Stecklum. 1.34-m f/3 Schmidt + CCD.
(H21) Astronomical Research Observatory, Westfield  (N39.483054 W87.968270)
   US/Illinois.  Observer R. Holmes. Measurers S. Foglia, L. Buzzi, T.
   Linder, R. Holmes. 0.76-m f/3.0 astrograph + CCD0.81-m f/4.0 astrograph +
   CCD0.61-m f/4.5 astrograph + CCD0.40-m f/5.32 astrograph + CCD.
(V00) Kitt Peak-Bok  (N31.963125 W111.600190)  US/Arizona.  Observers T. A.
   Pruyne, B. M. Africano, E. J. Christensen, G. A. Farneth, D. C. Fuls, A.
   R. Gibbs, A. D. Grauer, H. Gröller, J. A. Johnson, R. A. Kowalski, S. M.
   Larson, G. J. Leonard, D. Rankin, R. L. Seaman, F. C. Shelly, K. W.
   Wierzchoś. 2.25-m reflector + CCD.

Orbital elements:  C0GVQ25
   Perihelion 2023 Apr 27.26280 +/- 0.0268 TT =  6:18:26 (JD 2460061.76280)
Epoch 2023 Mar 20.0 TT = JDT 2460023.5   Earth MOID: 0.0001   Ma: 0.0222
M 347.61137468 +/- 0.08             (J2000 ecliptic)             AutoNEOCP
n   0.32377726 +/- 0.00196          Peri.  231.71054 +/- 0.0055
a   2.10041520 +/- 0.00857          Node     1.35708 +/- 0.0018
e   0.5933009 +/- 0.00178           Incl.    1.24915 +/- 0.0027
P   3.04                   H 28.11  G  0.15   U  8.6
q 0.85423690 +/- 0.000293    Q 3.34659350 +/- 0.0174
16 of 17 observations 2023 Mar. 18-20 (47.1 hr); mean residual 0".23
Residuals in arcseconds: 
230318 V00( 2.6-  .92+)   230318 V00  .02-  .01-    230320 H21  .34+  .12+    
230318 V00  .01-  .06+    230319 033  .55+  .62-    230320 H21  .09-  .01-    
230318 V00  .34+  .07-    230319 033  .06-  .20+    230320 H21  .04-  .17-    
230318 V00  .50-  .17+    230319 033  .08-  .08-    230320 H21  .20-  .04-    
230318 V00  .24+  .16+    230319 033  .40-  .04+    230320 H21  .00   .14+    
230318 V00  .06+  .12-    230319 033  .14-  .26+    

Ephemerides (geocentric):
Date (UTC) HH   RA             Dec           delta  r     elong  mag " sig PA
---- --------  ------------   ------------  ------ ------ -----  --- --------
2023 03 20 10  15 03 53.081   -14 40 27.54  .01343 1.0047 131.5 20.6 1.39 175
2023 03 20 11  15 09 04.088   -15 05 17.74  .01331 1.0044 130.2 20.6 1.40 175
2023 03 20 12  15 14 21.922   -15 30 07.38  .01319 1.0041 128.9 20.6 1.40 176
2023 03 20 13  15 19 46.459   -15 54 53.16  .01309 1.0038 127.6 20.7 1.40 177
2023 03 20 14  15 25 17.543   -16 19 31.55  .01299 1.0035 126.2 20.7 1.40 178
2023 03 20 15  15 30 54.978   -16 43 58.91  .01289 1.0032 124.9 20.7 1.40 179
2023 03 20 16  15 36 38.533   -17 08 11.44  .01281 1.0029 123.5 20.7 1.39   0
2023 03 20 17  15 42 27.937   -17 32 05.24  .01273 1.0026 122.1 20.8 1.39   2
2023 03 20 18  15 48 22.879   -17 55 36.35  .01266 1.0024 120.7 20.8 1.39   3
2023 03 20 19  15 54 23.008   -18 18 40.78  .01260 1.0021 119.2 20.8 1.38   5
2023 03 20 20  16 00 27.937   -18 41 14.58  .01255 1.0018 117.8 20.8 1.38   7
2023 03 20 21  16 06 37.239   -19 03 13.82  .01251 1.0015 116.3 20.9 1.38   9
2023 03 20 22  16 12 50.453   -19 24 34.72  .01247 1.0012 114.9 20.9 1.38  11
2023 03 20 23  16 19 07.085   -19 45 13.63  .01245 1.0009 113.4 21.0 1.38  14
2023 03 21 00  16 25 26.612   -20 05 07.12  .01243 1.0006 111.9 21.0 1.39  17
2023 03 21 01  16 31 48.484   -20 24 11.97  .01242 1.0003 110.4 21.0 1.39  19
2023 03 21 02  16 38 12.131   -20 42 25.29  .01242 1.0000 108.9 21.1 1.41  22
2023 03 21 03  16 44 36.965   -20 59 44.47  .01243 0.9997 107.5 21.1 1.43  25
2023 03 21 04  16 51 02.390   -21 16 07.29  .01245 0.9995 106.0 21.2 1.45  28
2023 03 21 05  16 57 27.802   -21 31 31.88  .01248 0.9992 104.5 21.2 1.48  31
2023 03 21 06  17 03 52.598   -21 45 56.76  .01251 0.9989 103.1 21.3 1.52  34
2023 03 21 07  17 10 16.180   -21 59 20.86  .01256 0.9986 101.6 21.4 1.56  37
2023 03 21 08  17 16 37.963   -22 11 43.54  .01261 0.9983 100.2 21.4 1.61  40
2023 03 21 09  17 22 57.377   -22 23 04.51  .01267 0.9980  98.7 21.5 1.66  42
2023 03 21 10  17 29 13.873   -22 33 23.92  .01274 0.9977  97.3 21.5 1.71  45
2023 03 21 11  17 35 26.930   -22 42 42.25  .01282 0.9974  95.9 21.6 1.77  47
2023 03 21 12  17 41 36.055   -22 51 00.36  .01290 0.9971  94.5 21.7 1.84  49
2023 03 21 13  17 47 40.789   -22 58 19.42  .01300 0.9969  93.2 21.7 1.91  51
2023 03 21 14  17 53 40.706   -23 04 40.88  .01310 0.9966  91.8 21.8 1.97  52
2023 03 21 15  17 59 35.420   -23 10 06.45  .01320 0.9963  90.5 21.9 2.05  54
2023 03 21 16  18 05 24.584   -23 14 38.08  .01332 0.9960  89.2 21.9 2.12  55
2023 03 21 17  18 11 07.888   -23 18 17.89  .01344 0.9957  87.9 22.0 2.19  57
2023 03 21 18  18 16 45.063   -23 21 08.15  .01357 0.9954  86.7 22.1 2.27  58
2023 03 21 19  18 22 15.879   -23 23 11.24  .01371 0.9951  85.5 22.2 2.34  59
2023 03 21 20  18 27 40.143   -23 24 29.65  .01385 0.9949  84.3 22.2 2.42  60
2023 03 21 21  18 32 57.700   -23 25 05.89  .01400 0.9946  83.1 22.3 2.49  61
2023 03 21 22  18 38 08.428   -23 25 02.52  .01416 0.9943  82.0 22.4 2.57  61
2023 03 21 23  18 43 12.240   -23 24 22.08  .01432 0.9940  80.8 22.5 2.64  62
2023 03 22 00  18 48 09.077   -23 23 07.10  .01449 0.9937  79.7 22.5 2.71  63
2023 03 22 01  18 52 58.913   -23 21 20.07  .01466 0.9934  78.7 22.6 2.78  63
2023 03 22 02  18 57 41.744   -23 19 03.41  .01484 0.9931  77.6 22.7 2.85  64
2023 03 22 03  19 02 17.591   -23 16 19.47  .01502 0.9929  76.6 22.8 2.91  64
2023 03 22 04  19 06 46.497   -23 13 10.52  .01521 0.9926  75.6 22.9 2.98  65
2023 03 22 05  19 11 08.524   -23 09 38.75  .01540 0.9923  74.7 22.9 3.04  65
2023 03 22 06  19 15 23.751   -23 05 46.23  .01560 0.9920  73.7 23.0 3.10  65
2023 03 22 07  19 19 32.270   -23 01 34.94  .01580 0.9917  72.8 23.1 3.16  65
2023 03 22 08  19 23 34.188   -22 57 06.75  .01601 0.9914  71.9 23.2 3.22  66
2023 03 22 09  19 27 29.620   -22 52 23.42  .01622 0.9912  71.1 23.2 3.27  66